Quesnel Airport
CYQZ : now visible

Airfield :











YOU CAN JOIN US ON...

 
LOGIN :

Register | Disclaimer

   EN    FR    IT 

 









Legend :    VFR   Marginal VFR   IFR   Intensive IFR   Very Intensive IFR
Visi :
Ceiling :
>= 8 km
>= 3000ft
5 to 8 km
1000 to 3000 ft
1500m to 5 km
500 to 1000 ft
800 to 1500m
200 to 500 ft
< 800m
< 200 ft
Symbols :   Thunderstorms  Fog  Heavy snow  Heavy precipitations  Wind > 20 kt






- Airport Elevation : 1789 ft
- IATA code : YQZ


CYQZ - Quesnel

CURRENT METAR :
  • 072000Z AUTO 31011G18KT 9SM FEW075 04/M10 A3013 RMK SLP228

EXPIRED METARs :
  • 071900Z AUTO 29007G17KT 250V330 9SM SCT070 04/M10 A3012 RMK SLP225
  • 071800Z AUTO 30014G21KT 260V340 9SM BKN065 03/M10 A3011 RMK SLP219

TAF TAF CYQZ
Valid from the 07 at 19:00 until the 08 at 06:00 UTC


071838Z 0719/0806 32010G20KT P6SM SCT060
TEMPO 0719/0724 BKN060
FM080000 32010KT P6SM FEW060
BECMG 0802/0804 VRB03KT RMK FCST BASED ON AUTO OBS. NXT FCST BY 080100Z



MET'MAP, your aeronautical weather chart ! - Copyright ORBIFLY December 2007 - Disclaimer

ORBIFLY MET'MAP TEAM :

Programming & Development : Alexandra Zaïnal
Concept & original design : Baudouin d'Aumeries
Assistance for programming : Marc-Olivier Méhu
Technical & hardware support : Manuel Goepfert

Contact : metmap@orbifly.com




SOURCES & CREDITS :

   NOAA       Earth
Advisory